Regional Weather Roundup
Issued by NWS

Home | Current Version | Previous Version | Text Only | Print | Product List | Glossary On
Versions: 1 2 3 4 5 6 7 8 9 10 11 12 13 14 15 16 17 18 19 20 21 22 23 24 25 26 27
000
ASUS45 KBOI 191410
RWRID

IDAHO REGIONAL WEATHER ROUNDUP
NATIONAL WEATHER SERVICE BOISE ID
800 AM MDT TUE SEP 19 2017

NOTE: "FAIR" INDICATES FEW OR NO CLOUDS BELOW 12000 FEET
WITH NO SIGNIFICANT WEATHER AND/OR OBSTRUCTIONS TO VISIBILITY

IDZ012-014-191500-
SOUTHWEST IDAHO


CITY           SKY/WX    TMP DP  RH WIND       PRES   REMARKS
BOISE          CLOUDY    48  40  73 CALM      29.87R
CALDWELL       CLOUDY    47  43  86 E3        29.87R
MOUNTAIN HOME  CLOUDY    46  41  84 CALM      29.87F
$$

IDZ016-017-191500-
SOUTHCENTRAL IDAHO


CITY           SKY/WX    TMP DP  RH WIND       PRES   REMARKS
BURLEY         MOCLDY    44  37  76 SW9       29.86S
JEROME         CLEAR     41  39  93 SW7       29.87S
TWIN FALLS     PTCLDY    42  37  82 S10       29.87S
$$

IDZ019>023-191500-
SOUTHEAST IDAHO


CITY           SKY/WX    TMP DP  RH WIND       PRES   REMARKS
IDAHO FALLS    CLOUDY    42  38  85 SW16      29.82R
POCATELLO      MOCLDY    44  38  79 SW17      29.86R
REXBURG        CLOUDY    41  37  86 SW15G26   29.79R
$$

IDZ006-010-011-018-031-032-191500-
CENTRAL IDAHO MOUNTAINS


CITY           SKY/WX    TMP DP  RH WIND       PRES   REMARKS
MCCALL         CLOUDY    34  33  96 E3        29.79R
HAILEY         PTCLDY    34  34 100 CALM      29.85R
STANLEY          N/A     33  32  96 CALM      29.82S
SALMON         LGT RAIN  42  38  85 SE6       29.79R
CHALLIS        PTCLDY    36  36 100 SE5       29.79R WCI  32
$$

IDZ002-004-006-007-026-191500-
NORTHERN IDAHO


CITY           SKY/WX    TMP DP  RH WIND       PRES   REMARKS
LEWISTON       CLOUDY    50  47  89 S3        29.75S
LOWELL           N/A     47  44  90 CALM      29.80R
COEUR D`ALENE  RAIN      45  42  89 SW5       29.73R FOG
MULLAN PASS    SNOW      31  30  96 VRB5      29.70S VSB 1/4 WCI  26
$$




USA.gov is the U.S. government's official web portal to all federal, state and local government web resources and services.